Theta_e
328 328 329 328 328 327 327 325 324 322 321 321 311 307 311 312 310 310 314 311 316 317 312 312 313 315 315 315 310 315 313 314 312 310 306 311 314 317 315 315 316 313 312 310 310 314 317 326 329 334 331 330 330 331
327 326 327 327 327 324 321 323 323 321 321 320 312 307 312 312 309 315 315 312 310 316 314 312 311 313 315 314 316 316 315 314 313 306 306 308 309 311 314 317 315 318 314 314 318 323 324 324 324 326 327 327 330 332
326 326 327 326 324 323 322 321 321 321 321 321 310 307 312 311 310 315 313 313 314 314 314 312 310 310 313 313 314 315 315 313 311 312 310 305 309 310 314 315 315 314 313 315 319 317 318 319 321 324 325 327 329 331
325 326 324 321 321 322 322 320 319 320 320 309 307 307 312 311 313 314 313 314 314 315 314 313 313 312 312 312 313 314 314 312 311 310 309 302 307 310 309 310 311 311 311 310 316 314 316 318 317 320 324 327 329 329
325 323 322 321 319 320 319 319 319 315 309 310 308 308 312 310 312 314 314 314 314 314 314 314 312 311 312 313 313 313 312 312 310 308 306 306 308 308 308 306 308 310 310 309 314 309 311 312 315 317 320 323 326 328
322 323 322 320 319 318 319 318 315 309 309 308 307 310 311 309 310 314 313 313 314 314 315 312 312 312 313 313 313 314 314 313 313 310 308 309 308 307 306 302 309 309 309 309 309 309 309 310 314 318 318 322 325 327
323 322 320 319 318 319 319 318 309 307 307 307 307 310 309 309 311 313 315 314 312 313 315 313 311 312 313 313 314 314 315 314 314 313 311 309 308 308 307 301 309 309 309 308 308 309 311 317 317 316 316 320 325 324
321 319 319 319 319 319 318 309 309 308 307 308 310 309 310 311 312 312 312 311 310 314 314 311 312 312 312 313 313 315 315 315 314 315 312 310 308 308 307 307 309 310 307 308 309 311 312 315 315 315 317 320 323 324
320 319 319 316 312 310 310 309 307 308 310 310 309 309 310 311 312 313 311 311 311 313 314 314 311 312 312 312 313 316 314 312 315 314 314 310 308 309 308 310 308 307 306 307 309 311 313 313 313 313 317 319 322 322
320 320 319 313 311 311 309 307 311 311 309 308 309 312 311 312 312 311 312 312 312 313 313 312 316 315 311 311 315 316 315 314 312 315 313 312 310 310 309 306 307 306 305 307 308 310 310 311 311 311 315 317 319 320
321 320 319 316 314 311 307 311 311 309 309 312 313 314 313 311 312 312 313 312 313 312 313 314 315 315 316 313 313 316 312 312 315 315 312 313 308 309 306 306 306 306 305 306 308 308 309 309 309 311 314 316 317 318
319 318 318 315 310 307 310 310 309 311 313 314 314 312 311 312 313 314 313 314 313 312 314 314 316 317 317 316 316 316 316 313 316 315 314 313 307 310 307 306 306 306 305 305 305 306 308 309 310 313 314 315 316 317
317 313 309 307 306 309 310 309 310 313 313 313 314 313 313 313 312 313 313 313 309 313 316 318 315 317 316 316 316 315 315 315 316 315 317 309 309 310 307 306 306 306 306 305 306 306 307 308 309 311 313 314 315 315
307 307 310 311 309 310 309 311 312 313 314 316 315 311 314 315 313 312 312 311 314 318 319 317 317 317 316 314 314 316 316 316 316 317 312 307 309 309 308 307 306 307 307 307 306 306 305 305 305 307 309 309 310 310
307 310 313 312 311 309 310 311 312 313 314 316 316 316 316 316 318 318 316 317 319 319 318 317 316 317 316 316 314 316 316 314 310 309 310 310 309 308 307 308 308 308 308 307 307 307 306 306 306 306 305 307 308 308
309 310 314 312 311 310 310 311 311 312 313 314 314 315 313 316 315 316 317 318 317 317 317 316 314 314 316 314 316 317 315 313 313 312 311 310 310 310 310 309 309 309 309 309 308 308 308 307 307 307 307 305 305 306
316 315 315 312 309 309 311 311 313 313 313 312 311 311 311 312 311 313 314 314 315 315 315 315 316 315 314 315 314 312 313 313 313 312 311 310 310 310 309 309 308 308 307 306 306 307 307 307 308 308 308 308 307 306
311 313 314 311 309 310 311 312 313 312 312 310 310 309 310 310 311 311 311 311 312 313 312 311 309 308 310 312 312 311 312 311 310 311 311 311 310 310 309 309 308 307 307 306 305 304 305 307 306 305 307 308 308 308
308 309 313 310 310 312 312 312 313 312 310 310 310 309 310 310 311 311 311 312 313 312 310 308 308 307 308 310 309 307 308 309 309 309 309 310 309 309 309 307 305 304 303 303 303 303 304 304 303 304 305 305 305 307
311 311 310 312 313 313 313 312 313 313 312 311 310 311 311 311 310 310 309 312 312 310 309 308 308 307 309 309 309 309 307 307 308 308 308 307 307 306 306 306 306 306 304 303 303 303 304 304 303 303 303 303 303 304
312 312 312 312 312 314 315 313 314 312 311 311 311 310 311 310 310 309 309 309 308 308 308 308 308 309 309 309 309 307 307 306 305 304 305 305 304 303 302 303 303 303 304 305 304 304 302 302 302 303 303 303 303 302
313 312 311 311 313 314 314 316 315 313 312 311 311 310 310 311 310 310 309 309 309 309 308 307 307 308 308 308 308 308 307 306 306 304 303 304 304 303 303 303 303 303 303 304 303 303 303 301 302 303 303 303 303 302
312 313 313 313 315 315 316 316 315 315 314 313 311 311 311 311 310 310 310 308 309 308 307 308 308 307 307 307 306 305 304 304 304 304 304 304 303 302 303 303 303 303 302 303 303 302 302 301 301 303 302 303 303 303
314 315 315 315 315 315 318 317 316 316 315 313 312 311 310 310 309 310 306 309 309 307 306 306 305 306 306 306 307 306 305 305 305 305 304 303 303 303 303 302 302 302 302 302 302 302 302 302 302 302 302 302 302 301
315 316 317 315 320 318 318 317 317 315 313 313 312 310 310 309 307 307 306 309 308 308 307 307 307 307 306 307 305 304 305 306 305 304 304 304 303 303 303 302 302 302 302 302 302 302 302 302 302 302 302 302 301 301
316 319 319 320 320 320 318 318 317 315 314 314 313 312 312 311 310 309 309 308 308 308 309 309 308 308 308 307 306 304 304 305 303 303 303 304 304 303 303 303 302 301 301 301 301 302 302 302 302 301 301 301 301 301
313 319 321 317 315 316 316 316 316 316 315 314 312 312 312 314 312 310 310 309 308 307 309 308 308 308 307 306 304 304 304 304 304 303 302 302 303 302 302 301 301 301 301 301 301 301 301 301 301 301 301 301 301 301
320 316 312 313 314 313 313 313 314 314 314 315 313 312 313 314 311 311 310 309 307 308 308 308 306 305 304 304 304 304 304 303 303 302 301 301 301 302 302 302 302 302 301 301 301 301 301 301 301 302 302 302 302 302
321 313 313 313 313 313 314 314 313 313 313 314 313 311 312 312 311 309 307 307 308 307 307 305 304 304 304 303 303 303 303 303 303 303 303 303 302 303 303 303 303 303 303 303 302 302 302 301 302 302 302 302 302 302
314 313 314 314 314 313 313 312 311 310 310 312 310 310 310 310 309 308 309 309 308 308 308 307 305 304 304 304 304 304 304 303 303 304 304 304 303 303 303 303 303 303 303 302 303 303 303 302 302 302 302 302 302 301
315 314 314 313 313 312 311 310 310 310 310 309 309 310 309 309 309 309 309 309 309 309 309 307 306 305 303 304 304 304 304 304 305 305 304 303 303 303 303 303 303 302 302 302 302 302 302 302 302 302 302 302 301 301
314 313 314 313 312 311 311 311 312 311 311 311 310 310 309 309 309 309 309 309 309 308 308 307 306 305 305 304 304 304 304 304 304 304 304 304 304 303 303 303 303 303 302 303 303 303 303 302 302 302 302 302 302 302
314 314 314 313 312 312 312 313 313 312 312 311 312 311 311 311 311 311 310 309 309 309 309 308 306 306 306 305 304 304 304 304 303 303 303 303 302 301 301 302 303 303 302 302 302 302 302 302 302 302 302 302 302 301
Wind_Speed
29 26 27 29 30 29 22 19 16 17 12 11 8 5 7 7 7 7 4 4 1 2 7 7 9 6 8 9 4 6 5 6 5 4 3 2 1 1 2 3 4 2 2 4 2 1 5 31 7 5 2 3 9 21
28 29 29 32 31 28 23 21 17 14 12 14 9 7 7 8 9 7 5 5 1 3 1 1 2 4 9 8 9 4 6 4 4 4 1 1 2 2 2 2 6 1 4 3 2 3 7 18 20 24 21 11 13 18
29 31 33 31 29 23 20 17 15 13 15 13 10 7 9 9 12 9 8 5 4 1 2 3 4 6 4 2 5 7 4 4 5 6 5 2 2 1 2 1 4 7 13 2 1 7 10 20 25 24 25 23 13 14
33 35 30 28 23 17 14 10 14 14 16 12 7 7 9 12 15 11 10 6 5 1 1 3 6 6 5 3 2 10 14 9 11 7 4 3 2 3 1 1 1 2 7 6 1 8 10 13 22 24 18 19 15 16
34 27 24 23 17 12 9 14 15 19 15 12 7 7 12 15 16 13 9 6 2 2 1 2 8 11 7 6 8 8 7 10 6 4 3 2 2 1 5 2 2 2 1 1 1 6 8 15 18 19 17 15 13 11
26 22 19 15 8 9 13 21 21 15 12 8 6 10 12 14 16 12 4 7 6 5 0 1 5 17 14 9 7 8 9 9 7 4 3 4 3 3 2 1 1 3 3 6 6 13 19 22 18 11 14 13 7 8
20 18 9 4 10 16 23 20 17 13 9 7 8 14 14 14 14 6 3 3 8 7 1 3 1 18 18 14 12 11 8 5 4 5 3 4 1 3 0 2 8 3 9 16 13 10 9 1 5 10 12 9 5 7
17 5 6 16 18 22 21 16 12 7 5 8 15 16 13 10 8 4 2 3 5 6 2 1 3 8 22 9 7 9 8 5 3 4 6 3 3 1 2 6 9 10 16 7 4 7 10 6 6 7 7 6 2 5
4 17 21 21 22 20 15 10 7 6 14 18 18 15 12 6 3 3 2 4 4 2 1 1 5 4 21 10 8 5 4 2 5 4 5 8 2 3 5 4 6 16 9 10 8 5 2 3 2 5 6 3 2 6
23 22 19 19 17 13 9 5 11 18 20 20 17 3 4 4 4 5 3 2 2 2 2 4 4 3 15 13 4 6 3 3 2 4 11 2 1 9 13 10 13 15 5 4 5 3 5 6 3 5 1 4 4 4
19 17 16 16 15 9 5 13 20 23 22 6 3 3 5 7 4 2 2 2 3 2 6 6 7 2 8 5 3 5 3 3 3 3 4 2 2 7 14 12 13 21 6 4 7 7 2 1 4 4 2 2 4 6
13 13 15 14 11 7 11 20 24 18 6 4 4 7 6 2 2 1 2 2 3 4 5 6 10 10 4 5 5 5 3 2 3 7 3 2 3 20 19 13 11 19 23 14 7 9 9 4 7 9 7 8 7 8
15 13 11 9 8 11 22 24 17 12 10 7 3 3 2 2 1 3 3 3 2 4 6 9 3 7 4 3 4 3 4 4 12 2 3 4 19 24 20 16 13 12 18 25 22 16 11 17 17 18 19 17 18 19
9 7 7 7 10 20 24 17 13 11 1 1 3 1 3 3 4 4 4 4 9 7 9 12 5 3 3 3 3 3 1 3 3 5 5 3 27 25 21 16 14 10 8 14 18 23 22 22 23 19 22 20 21 25
7 6 6 9 17 24 19 12 9 7 2 1 2 2 3 7 7 8 11 12 12 12 18 11 5 4 2 1 2 3 4 2 4 4 3 21 25 24 23 16 12 11 8 8 7 15 17 17 17 22 25 15 14 16
6 6 7 10 19 21 15 9 6 2 4 4 3 5 14 4 10 11 12 9 3 17 14 6 3 2 3 2 1 2 3 4 2 2 22 28 25 24 21 17 14 12 10 7 9 9 10 12 12 10 13 20 18 14
4 5 8 13 21 18 11 7 3 3 3 3 4 8 8 6 7 10 14 17 13 8 3 4 1 1 1 2 2 1 2 1 14 19 22 22 20 20 16 16 17 14 11 11 11 9 6 2 7 7 6 9 12 13
5 8 10 17 20 13 7 3 3 4 4 5 3 8 8 6 7 7 7 10 10 4 3 2 3 5 2 2 1 2 17 23 18 15 16 17 18 16 13 15 14 10 7 7 8 7 7 10 9 8 4 5 8 8
5 9 14 20 14 5 3 2 2 3 2 1 2 2 1 6 8 8 7 4 1 5 8 4 3 2 1 6 18 17 18 19 19 17 16 15 15 16 15 13 9 7 7 7 7 8 11 12 11 9 10 10 11 14
13 20 21 15 8 3 3 3 2 3 3 2 1 4 5 9 16 17 17 10 11 3 5 3 4 10 15 20 16 17 19 20 23 22 19 19 16 14 12 10 8 5 3 6 4 5 10 7 7 6 7 7 5 7
21 19 13 7 5 2 2 3 3 4 6 2 2 3 4 13 19 22 22 19 12 5 4 7 17 6 6 10 20 20 20 17 17 18 16 14 11 8 7 6 2 4 9 8 8 12 7 8 9 6 4 1 5 6
16 12 8 4 2 2 2 5 4 7 4 5 4 2 2 3 5 9 11 12 7 15 11 13 12 14 16 17 16 15 12 10 12 13 12 9 8 5 4 11 8 14 12 13 14 6 5 4 7 6 8 8 3 5
11 5 2 2 1 2 1 15 5 8 5 6 8 4 2 2 2 3 4 3 8 14 14 14 13 14 14 14 13 11 10 9 11 12 12 7 11 12 13 11 8 8 11 11 11 10 7 6 3 5 2 3 6 8
6 2 3 4 7 4 9 8 6 7 6 5 4 4 3 3 4 2 1 2 9 11 13 14 15 14 10 7 7 10 9 8 7 13 12 12 10 12 10 11 10 9 8 9 6 6 5 4 3 4 5 3 6 5
1 3 4 6 7 4 1 2 6 6 5 5 5 3 5 7 3 2 4 8 13 13 14 13 9 8 10 5 9 7 5 8 10 4 8 13 15 15 13 11 9 6 4 5 6 5 6 4 4 2 2 1 2 2
4 7 9 6 7 5 8 4 4 4 3 3 4 9 8 5 4 4 6 18 18 17 12 10 10 11 12 10 7 7 9 14 16 11 13 11 9 8 10 8 7 6 3 4 5 5 5 6 4 4 2 1 3 2
3 5 6 5 4 2 3 4 7 4 5 4 4 6 4 5 3 3 12 23 21 19 13 8 1 13 15 15 13 9 11 12 8 6 9 8 8 6 5 5 5 4 3 4 6 6 6 5 6 6 2 1 3 2
7 4 4 8 7 7 2 1 1 1 1 4 2 3 2 3 3 10 14 20 22 17 12 4 15 17 16 12 11 11 11 11 14 13 15 16 14 12 11 10 10 11 9 9 7 4 2 1 1 3 4 5 5 6
3 7 5 3 3 4 6 5 3 4 4 5 3 2 2 3 11 17 21 24 20 16 15 16 19 16 15 12 10 16 19 19 18 15 9 8 8 6 4 2 4 5 2 3 3 3 3 1 1 2 2 3 3 4
5 7 3 2 3 2 3 4 8 7 8 6 10 17 17 15 15 20 21 20 19 20 19 19 16 12 16 14 10 13 13 14 16 10 10 8 5 4 3 1 3 3 2 2 2 4 7 4 3 3 3 5 2 4
8 5 4 4 3 7 7 7 8 9 11 17 15 20 19 16 14 14 16 15 15 17 17 23 15 13 17 17 12 10 15 15 15 11 9 13 14 9 7 3 6 5 1 2 4 6 2 2 1 4 2 2 5 5
8 6 6 3 4 8 7 6 6 8 13 20 18 18 18 15 13 17 19 20 18 17 19 21 15 14 17 18 14 13 13 15 15 12 11 10 9 6 8 6 4 3 1 4 8 5 5 0 1 1 1 1 3 4
7 8 11 8 5 5 8 4 5 3 8 10 10 22 19 15 9 12 18 24 23 20 15 21 18 13 14 19 19 17 13 14 6 6 7 4 7 8 11 12 9 5 2 4 8 7 3 1 2 2 2 2 5 6
Wind_Direction
309 307 307 307 305 303 300 293 276 241 241 209 197 233 221 211 193 188 131 103 52 288 47 57 50 65 85 58 127 158 79 30 43 59 96 296 305 175 73 235 272 298 196 189 145 217 328 348 25 58 176 336 27 50
306 306 305 302 298 305 301 281 264 229 222 181 196 218 210 194 179 172 155 102 286 255 61 211 67 91 81 46 138 66 120 109 131 97 192 66 340 325 174 24 290 102 113 263 70 82 28 28 38 34 39 45 44 51
308 305 302 300 301 293 287 281 231 207 188 197 198 203 197 180 171 154 128 126 136 338 246 264 196 211 181 88 89 122 97 126 133 127 133 157 222 347 352 81 335 337 6 48 197 12 10 32 27 28 37 41 55 52
307 303 303 305 301 288 274 237 200 199 181 167 178 203 186 174 169 149 118 120 114 175 125 236 157 139 160 192 118 97 128 134 132 137 105 132 159 1 228 189 43 247 336 335 9 350 354 20 19 10 20 49 72 58
309 305 306 301 292 273 220 180 173 157 155 165 191 203 185 175 170 152 145 131 148 136 160 168 158 153 174 154 99 95 87 117 128 95 83 123 134 357 331 72 118 349 349 6 255 326 312 295 340 353 357 18 39 64
304 309 305 299 262 198 171 155 156 164 161 169 190 192 174 170 174 168 188 213 199 201 184 359 174 167 172 155 133 148 122 105 91 96 114 112 119 130 93 306 159 107 306 283 262 292 290 288 313 333 343 0 34 72
308 301 293 253 163 153 148 155 157 161 164 182 188 169 158 160 170 173 168 178 204 192 246 322 149 173 177 162 153 149 146 144 121 120 113 117 87 159 115 185 176 315 314 302 282 283 293 60 313 323 340 344 25 103
293 267 154 141 141 140 143 147 150 164 192 181 157 148 142 144 149 143 118 157 157 162 192 163 258 157 184 167 156 168 165 146 144 135 144 129 122 284 287 266 304 307 312 292 262 242 261 271 283 326 350 359 288 107
173 141 139 139 135 136 138 143 162 188 151 143 140 134 121 127 130 128 95 154 172 125 234 301 160 211 181 174 155 127 142 81 164 162 189 149 146 226 236 129 359 332 307 283 276 267 90 195 299 336 10 54 130 70
134 134 139 142 135 132 132 146 147 141 138 134 132 102 128 147 128 102 66 108 169 164 235 245 268 240 179 184 111 114 138 159 185 225 146 211 133 127 125 95 36 4 314 255 215 124 106 92 355 308 256 45 60 97
135 132 137 141 144 140 139 145 144 139 133 127 114 104 134 138 121 135 144 179 189 254 213 230 229 192 163 153 155 174 169 172 175 220 128 185 224 173 151 109 61 38 34 161 128 93 86 287 236 267 190 120 99 117
136 135 140 140 142 140 141 143 141 142 114 116 114 118 133 138 107 155 210 228 199 229 211 199 209 206 160 145 116 159 160 140 199 143 110 205 230 168 167 145 99 61 61 73 115 80 79 170 186 152 185 173 126 116
128 132 138 146 152 143 148 152 151 139 131 125 107 99 110 140 115 189 215 263 237 215 224 186 170 154 141 148 110 147 163 199 131 155 206 210 168 173 173 160 138 100 76 80 84 82 72 69 101 119 127 129 130 127
131 137 144 158 159 156 156 155 154 155 157 120 154 93 202 194 242 208 212 205 225 235 185 174 122 120 113 96 158 141 164 76 167 191 217 190 169 176 175 168 161 156 137 90 90 85 75 68 60 78 98 106 112 109
125 129 138 152 157 160 160 157 166 170 20 326 253 235 196 309 313 317 308 310 267 217 159 130 78 80 16 98 189 124 143 206 207 218 189 157 154 154 162 168 171 170 187 182 140 98 95 91 83 76 70 83 101 118
141 136 138 151 162 162 158 158 163 180 7 355 20 350 337 333 4 14 16 16 40 136 117 103 129 118 205 156 121 35 135 210 227 196 148 147 147 149 152 158 153 156 163 150 185 182 140 112 97 97 100 96 99 102
128 124 139 152 161 167 157 136 92 42 23 23 18 25 33 24 346 357 27 21 28 61 47 34 100 82 50 71 100 85 289 67 93 115 142 152 149 147 150 146 143 133 124 114 110 115 120 139 155 156 135 130 143 134
117 135 143 154 163 156 123 74 77 55 52 25 49 15 34 35 33 38 53 56 50 56 65 75 43 34 40 81 63 38 78 104 115 136 152 142 142 144 154 149 143 148 153 135 109 82 103 115 96 84 162 138 168 126
96 129 132 140 142 111 81 65 102 111 81 53 56 74 290 304 309 304 288 307 331 138 116 77 76 76 43 84 112 112 115 120 115 116 119 125 135 147 151 142 138 114 78 105 114 105 107 100 81 72 87 101 114 126
117 125 131 131 127 110 112 133 131 115 135 148 16 0 340 359 32 49 38 153 134 133 68 57 76 119 124 132 129 133 138 138 131 124 123 127 134 140 148 153 162 164 110 100 101 143 112 88 119 86 84 75 71 110
134 135 132 120 94 71 146 163 136 137 146 156 133 52 28 55 50 55 51 85 87 76 76 133 153 145 158 151 141 134 130 122 125 126 136 149 154 146 142 161 249 239 174 178 128 132 111 73 76 138 64 57 60 52
150 149 139 120 125 160 239 190 142 139 116 145 152 106 73 26 20 38 52 55 75 111 122 126 118 108 121 133 128 134 142 135 156 146 140 152 170 173 147 132 110 95 101 158 153 159 170 93 91 96 104 114 58 78
142 131 122 164 249 222 119 156 160 166 149 185 165 161 163 159 122 64 69 21 71 120 127 129 127 127 127 131 132 136 133 137 144 149 155 145 144 133 126 132 135 137 125 122 123 128 137 146 113 54 58 78 77 49
131 162 210 210 209 224 157 192 181 169 134 170 184 132 146 151 131 84 137 187 135 133 131 127 128 134 141 156 162 148 154 153 79 182 162 163 139 140 136 128 120 118 133 140 135 142 149 173 139 129 122 99 115 89
248 229 205 254 201 206 105 217 195 174 171 176 157 134 155 165 133 163 170 179 173 154 154 153 167 167 164 160 131 147 160 177 179 124 176 169 155 134 117 125 127 118 151 177 148 148 122 134 149 103 93 203 267 275
238 208 202 215 188 205 169 194 164 180 143 180 190 138 153 160 162 187 198 182 184 173 180 174 187 211 218 205 172 140 113 147 142 116 119 158 154 140 158 164 150 127 138 168 156 147 160 142 155 124 108 55 24 103
257 246 214 237 273 292 111 99 141 165 196 176 157 160 164 181 152 179 171 180 180 177 173 169 268 170 168 158 155 148 141 154 137 133 115 115 123 127 134 126 146 142 112 147 133 113 115 99 84 78 118 202 11 59
258 171 124 62 53 42 64 113 101 28 35 21 94 43 62 46 164 162 177 176 169 166 164 148 152 150 148 148 155 151 147 144 135 120 119 123 114 108 102 118 122 108 116 128 128 139 117 82 290 292 298 304 292 303
243 135 115 138 106 53 34 25 43 48 16 16 69 62 86 93 150 144 141 156 161 168 164 136 139 144 144 122 126 144 149 159 166 164 167 171 186 178 136 112 103 67 125 101 152 172 176 178 28 49 320 336 332 258
170 161 127 71 75 67 45 94 95 65 52 104 107 113 114 124 132 139 149 161 164 163 163 172 162 151 166 162 171 179 178 184 191 201 207 216 211 172 183 205 300 270 282 16 342 258 242 221 92 7 330 248 339 20
160 164 114 98 95 129 117 124 132 129 114 120 127 129 137 143 157 175 180 177 186 199 201 183 185 185 179 180 178 195 190 178 181 188 171 155 143 133 128 81 101 39 81 0 312 299 234 150 84 179 184 10 32 16
172 186 142 108 127 147 165 180 169 161 154 151 151 148 155 162 174 189 191 192 195 198 197 192 182 189 203 196 181 175 194 180 181 192 196 184 185 192 198 167 150 216 261 6 1 261 223 192 223 223 331 313 354 341
202 139 113 105 130 172 215 246 179 190 192 199 184 184 184 188 196 210 198 196 194 194 203 204 201 182 186 191 187 184 184 183 179 186 190 232 252 246 220 214 217 223 227 44 55 81 92 119 95 104 67 358 339 340